Flag for United Arab Emirates Weather past 2 weeks in Abu Dhabi, Abu Dhabi, United Arab Emirates

Now
79 °F

Clear.


Feels Like: 80 °F
Forecast: 80 / 86 °F
Wind: 12 mph from Northwest

Location: Abu Dhabi Bateen Airport

Current Time: Apr 19, 2015 at 11:22:24 PM

Latest Report: Apr 19, 2015 at 11:00 PM


Visibility: 10 mi

Pressure: 29.86 "Hg

Humidity: 48%

Dew point: 57 °F

Location of Abu DhabiLocation

Historic Weather in Abu Dhabi — Graph

°F

Abu Dhabi temperature yesterday

Maximum temperature yesterday: 95 °F (at 1:00 PM)
Minimum temperature yesterday: 77 °F (at 3:00 AM)
Average temperature yesterday: 84 °F

Past Weeks' High & Low Weather Summary

 TemperatureHumidityPressure
High106 °F (Apr 11, 2:00 PM)94% (Apr 9, 2:00 AM)30.01 "Hg (Apr 9, 2:00 AM)
Low72 °F (Apr 5, 6:00 AM)10% (Apr 11, 2:00 PM)29.71 "Hg (Apr 5, 2:00 AM)
Average84 °F50%29.84 "Hg
* Reported Apr 4 10:00 PM — Apr 19 10:00 PM, Abu Dhabi, Weather by CustomWeather, © 2015

Note: Actual official high and low records may vary slightly from our data, if they occured in-between our weather recording intervals... More about our weather records

Advertising

Abu Dhabi weather history for previous 24 hours

 ConditionsComfort  
Time TempWeatherWind HumidityBarometerVisibility
10:00 PM
Sun, Apr 19
81 °FClear.10 mph42%29.86 "Hg10 mi
9:00 PM81 °FClear.9 mph39%29.86 "Hg10 mi
8:00 PM81 °FPassing clouds.10 mph42%29.83 "HgN/A
7:00 PM81 °FClear.12 mph42%29.83 "Hg10 mi
6:00 PM84 °FPassing clouds.13 mph33%29.83 "HgN/A
5:00 PM84 °FSunny.15 mph31%29.80 "Hg10 mi
4:00 PM86 °FSunny.18 mph25%29.80 "Hg10 mi
3:00 PM88 °FSunny.18 mph22%29.83 "Hg10 mi
2:00 PM88 °FSunny.18 mph21%29.83 "Hg10 mi
1:00 PM88 °FPassing clouds.17 mph22%29.86 "HgN/A
12:00 PM88 °FSunny.18 mph24%29.89 "Hg10 mi
11:00 AM86 °FSunny.18 mph24%29.89 "Hg10 mi
10:00 AM86 °FSunny.18 mph27%29.89 "Hg10 mi
9:00 AM84 °FSunny.18 mph33%29.86 "Hg10 mi
8:00 AM82 °FSunny.14 mph37%29.86 "Hg10 mi
7:00 AM81 °FSunny.14 mph48%29.83 "Hg10 mi
6:00 AM79 °FSunny.13 mph54%29.80 "Hg10 mi
5:00 AM79 °FClear.15 mph58%29.80 "Hg10 mi
4:00 AM81 °FClear.12 mph58%29.77 "Hg10 mi
3:00 AM81 °FClear.8 mph58%29.77 "Hg10 mi
2:00 AM79 °FClear.9 mph65%29.80 "Hg10 mi
1:00 AM79 °FClear.8 mph65%29.80 "Hg10 mi
12:00 AM81 °FClear.8 mph66%29.83 "Hg10 mi
11:00 PM
Sat, Apr 18
81 °FClear.7 mph66%29.83 "Hg10 mi
Weather by CustomWeather, © 2015

See weather overviewHow to use our weather pages